User: anonymous   Login
Location: Habighorst
(52.7089°N, 10.2278°E)
Time: 01:53:31
(UTC+00:00)
Language:

Cosmos 1140 Rocket - Orbit

View from above orbital plane
View from above orbital plane
View from above satellite
View from above satellite

Ground track
Ground track

The orbit is defined by the following mean orbital elements,

1 11574U          26073.46194066 +.00000000 +00000-0 +10698-3 0 00002
2 11574  74.0667  82.2084 0017110 254.4139 105.5129 14.42354150    04
Epoch (UTC): 14 March 2026 11:05:11
Eccentricity: 0.0017110
inclination: 74.0667°
perigee height: 739 km
apogee height: 763 km
right ascension of ascending node: 82.2084°
argument of perigee: 254.4139°
revolutions per day: 14.42354150
mean anomaly at epoch: 105.5129°

The dashed part of the orbit path shows where the satellite is in the earth's shadow,  

DLR